FW2027 Weather Reports


time (UTC)temp
C
wind
direction
speed
KPH
gust
KPH
rain 1hr
cm
rain 24hr
cm
rain mn
cm
humidity
%
barometer
mb
20260505190057 11 355 6.4 16.1 0.00 0.00 0.00 76 1011.4
20260505184548 11 315 6.4 19.3 0.00 0.00 0.00 76 1011.1
20260505183110 11 355 9.7 20.9 0.00 0.00 0.00 76 1011.2
20260505181546 11 344 8.0 19.3 0.00 0.00 0.00 77 1011.2
20260505180047 11 355 4.8 19.3 0.00 0.00 0.00 77 1011.2
20260505174545 12 360 6.4 20.9 0.00 0.00 0.00 75 1011.3
20260505173051 12 320 9.7 19.3 0.00 0.00 0.00 74 1011.5
20260505171551 12 337 9.7 20.9 0.00 0.00 0.00 74 1011.4
20260505170043 12 5 9.7 24.1 0.00 0.00 0.00 74 1011.5
20260505164543 12 355 11.3 20.9 0.00 0.00 0.00 73 1011.4
20260505163042 12 355 12.9 22.5 0.00 0.00 0.00 74 1011.4
20260505161548 13 346 11.3 25.7 0.00 0.00 0.00 73 1011.3
20260505153038 13 333 8.0 20.9 0.00 0.00 0.00 72 1011.6
20260505151537 13 350 9.7 19.3 0.00 0.00 0.00 70 1011.5
20260505124527 13 5 12.9 24.1 0.00 0.00 0.00 73 1011.9
20260505123027 12 5 11.3 24.1 0.00 0.00 0.00 73 1011.9
20260505121531 12 5 14.5 24.1 0.00 0.00 0.00 72 1012.1
20260505120052 12 341 9.7 22.5 0.00 0.00 0.00 72 1011.9
20260505114524 12 293 9.7 20.9 0.00 0.00 0.00 70 1012.1
20260505113027 12 5 11.3 20.9 0.00 0.00 0.00 67 1012.1
20260505111524 12 348 12.9 24.1 0.00 0.00 0.00 68 1012.1
20260505101522 12 340 9.7 20.9 0.00 0.00 0.00 71 1012.6
20260505100021 12 17 9.7 19.3 0.00 0.00 0.00 71 1012.7
20260505094509 12 28 9.7 17.7 0.00 0.00 0.00 71 1012.5
20260505093006 12 343 8.0 19.3 0.00 0.00 0.00 71 1012.5
20260505091511 11 313 6.4 17.7 0.00 0.00 0.00 76 1012.4
20260505090100 11 348 8.0 20.9 0.00 0.00 0.00 74 1012.5
20260505084557 11 338 11.3 19.3 0.00 0.00 0.00 74 1012.6
20260505083054 11 5 4.8 19.3 0.00 0.00 0.00 77 1012.5
20260505081548 10 325 9.7 17.7 0.00 0.00 0.00 77 1012.7
20260505080046 10 343 6.4 17.7 0.00 0.00 0.00 80 1013.2
20260505074544 10 9 6.4 17.7 0.00 0.00 0.00 83 1013.1
20260505073059 10 340 6.4 12.9 0.00 0.00 0.00 85 1013.1
20260505071541 9 355 3.2 8.0 0.00 0.00 0.00 89 1013.0
20260505070040 9 355 3.2 9.7 0.00 0.00 0.00 90 1013.0
20260505064543 8 322 1.6 6.4 0.00 0.00 0.00 92 1013.2
20260505063038 8 355 1.6 4.8 0.00 0.00 0.00 93 1013.3
20260505061547 8 11 0.0 1.6 0.00 0.00 0.00 93 1013.3
20260505060034 8 11 0.0 3.2 0.00 0.00 0.00 93 1013.2
20260505054556 8 13 0.0 3.2 0.00 0.00 0.00 94 1013.1
20260505053034 8 13 0.0 0.0 0.00 0.00 0.00 94 1013.1
20260505051533 8 13 0.0 0.0 0.00 0.00 0.00 94 1013.1
20260505041527 8 334 0.0 6.4 0.00 0.00 0.00 94 1012.6
20260505040028 8 332 1.6 6.4 0.00 0.00 0.00 95 1012.6
20260505034526 8 26 0.0 3.2 0.00 0.00 0.00 95 1012.6
20260505033026 8 29 0.0 6.4 0.00 0.00 0.00 95 1012.6
20260505031539 8 21 1.6 3.2 0.00 0.00 0.00 95 1012.8
20260505030023 8 22 0.0 3.2 0.00 0.00 0.00 95 1012.8
20260505024532 8 22 0.0 3.2 0.00 0.00 0.00 95 1012.8
20260505023022 8 11 0.0 3.2 0.00 0.00 0.00 95 1012.9
20260505021525 8 335 0.0 3.2 0.00 0.00 0.00 94 1013.0
20260505020027 8 336 1.6 6.4 0.00 0.00 0.00 94 1013.1
20260505014525 8 360 1.6 3.2 0.00 0.00 0.00 94 1013.1
20260505013014 8 360 0.0 3.2 0.00 0.00 0.00 95 1013.2
20260505011523 8 360 0.0 0.0 0.00 0.00 0.00 95 1013.4
20260505010012 8 360 0.0 3.2 0.00 0.00 0.00 94 1013.3
20260505004526 8 360 0.0 3.2 0.00 0.00 0.00 93 1013.4
20260505003008 8 51 0.0 0.0 0.00 0.00 0.00 93 1013.4
20260505001507 9 51 0.0 0.0 0.00 0.00 0.00 93 1013.7
20260505000008 9 51 0.0 0.0 0.00 0.00 0.00 92 1013.7
20260504234504 9 51 0.0 0.0 0.00 0.00 0.00 92 1013.7
20260504233001 10 51 0.0 0.0 0.00 0.00 0.00 91 1013.5
20260504231602 10 51 0.0 0.0 0.00 0.00 0.00 90 1013.5
20260504230107 10 62 1.6 4.8 0.00 0.00 0.00 90 1013.4
20260504224558 10 62 0.0 1.6 0.00 0.00 0.00 89 1013.5
20260504223104 10 62 0.0 0.0 0.00 0.00 0.00 89 1013.7
20260504221604 11 62 0.0 3.2 0.00 0.00 0.00 88 1013.5
20260504220059 11 63 0.0 1.6 0.00 0.00 0.00 87 1013.6
20260504214557 11 63 1.6 4.8 0.00 0.00 0.00 87 1013.6
20260504213054 11 62 3.2 6.4 0.00 0.00 0.00 87 1013.7
20260504211552 11 52 1.6 8.0 0.00 0.00 0.00 87 1013.7
20260504210054 12 74 1.6 4.8 0.00 0.00 0.00 87 1013.6
20260504204550 12 59 0.0 1.6 0.00 0.05 0.00 87 1013.5
20260504203101 12 59 0.0 3.2 0.00 0.05 0.00 87 1013.4
20260504201550 12 59 3.2 8.0 0.00 0.05 0.00 86 1013.4
20260504200048 12 61 4.8 8.0 0.00 0.05 0.00 85 1013.2
20260504194548 12 54 1.6 6.4 0.00 0.79 0.00 85 1013.1
20260504193047 13 57 1.6 6.4 0.00 0.79 0.00 84 1012.6
20260504191546 13 59 3.2 8.0 0.00 0.79 0.00 84 1012.5